FW0311 Weather Reports


Display with metric or nautical units.
time (UTC)temp
F
wind
direction
speed
MPH
gust
MPH
rain 1hr
in
rain 24hr
in
rain mn
in
humidity
%
barometer
mb
20260504041604 47 232 0.0 0.0 0.00 0.00 0.00 62 1015.1
20260504040055 49 232 2.0 4.0 0.00 0.00 0.00 58 1015.2
20260504034604 49 202 5.0 9.0 0.00 0.00 0.00 56 1015.1
20260504033052 49 195 2.0 5.0 0.00 0.00 0.00 57 1015.2
20260504031551 49 205 0.0 6.0 0.00 0.00 0.00 58 1015.2
20260504030050 48 190 0.0 5.0 0.00 0.00 0.00 58 1015.1
20260504024553 48 191 0.0 4.0 0.00 0.00 0.00 58 1015.3
20260504023050 49 190 1.0 4.0 0.00 0.00 0.00 58 1015.3
20260504021552 49 190 0.0 2.0 0.00 0.00 0.00 57 1015.2
20260504020056 49 190 3.0 7.0 0.00 0.00 0.00 57 1015.2
20260504014547 50 193 1.0 4.0 0.00 0.00 0.00 56 1015.2
20260504013105 50 193 1.0 5.0 0.00 0.00 0.00 55 1015.1
20260504011546 51 196 2.0 5.0 0.00 0.00 0.00 54 1015.0
20260504010046 51 199 2.0 6.0 0.00 0.00 0.00 53 1015.0
20260504004546 52 192 1.0 7.0 0.00 0.00 0.00 52 1015.1
20260504003045 53 238 2.0 7.0 0.00 0.00 0.00 50 1014.9
20260504001547 53 229 3.0 8.0 0.00 0.00 0.00 49 1014.8
20260504000044 54 254 4.0 12.0 0.00 0.00 0.00 48 1014.7
20260503234544 55 217 4.0 12.0 0.00 0.00 0.00 47 1014.7
20260503233044 56 247 1.0 10.0 0.00 0.00 0.00 45 1014.8
20260503231542 56 269 3.0 9.0 0.00 0.00 0.00 45 1014.9
20260503230043 57 280 4.0 10.0 0.00 0.00 0.00 45 1014.8
20260503224541 56 299 7.0 14.0 0.00 0.00 0.00 44 1014.7
20260503223039 56 233 4.0 11.0 0.00 0.00 0.00 44 1014.7
20260503221546 56 249 7.0 20.0 0.00 0.00 0.00 44 1014.9
20260503220039 55 271 3.0 10.0 0.00 0.00 0.00 46 1014.9
20260503214541 55 286 6.0 15.0 0.00 0.00 0.00 45 1015.0
20260503213043 56 288 3.0 10.0 0.00 0.00 0.00 45 1015.0
20260503211537 56 300 5.0 15.0 0.00 0.00 0.00 44 1015.0
20260503210035 56 271 3.0 15.0 0.00 0.00 0.00 45 1015.0
20260503204533 57 260 5.0 15.0 0.00 0.00 0.00 45 1015.0
20260503203036 56 254 2.0 13.0 0.00 0.00 0.00 45 1015.1
20260503201529 56 268 5.0 18.0 0.00 0.00 0.00 44 1015.4
20260503200029 55 226 8.0 18.0 0.00 0.00 0.00 44 1015.5
20260503194525 56 299 4.0 14.0 0.00 0.00 0.00 45 1015.7
20260503193035 55 244 8.0 17.0 0.00 0.00 0.00 45 1015.9
20260503191542 55 323 7.0 13.0 0.00 0.00 0.00 46 1016.1
20260503190026 55 289 6.0 15.0 0.00 0.00 0.00 47 1016.3
20260503184514 55 325 7.0 16.0 0.00 0.00 0.00 47 1016.5
20260503183013 54 281 8.0 20.0 0.00 0.00 0.00 46 1016.5
20260503181511 54 304 8.0 22.0 0.00 0.00 0.00 47 1016.6
20260503180012 54 317 4.0 20.0 0.00 0.00 0.00 48 1016.6
20260503174508 52 286 6.0 19.0 0.00 0.00 0.00 49 1016.6
20260503173009 52 290 11.0 19.0 0.00 0.00 0.00 47 1016.9
20260503171507 53 326 9.0 17.0 0.00 0.00 0.00 48 1017.1
20260503160107 49 215 5.0 14.0 0.00 0.00 0.00 54 1017.8
20260503081551 34 291 0.0 4.0 0.00 0.00 0.00 83 1016.8
20260503071544 36 292 0.0 2.0 0.00 0.00 0.00 80 1016.6
20260503054543 37 292 0.0 3.0 0.00 0.00 0.00 76 1016.5
20260503053029 38 292 1.0 4.0 0.00 0.00 0.00 76 1016.6
20260503051521 38 293 1.0 3.0 0.00 0.00 0.00 75 1016.7
20260503050018 38 293 1.0 4.0 0.00 0.00 0.00 74 1016.6
20260503044517 39 294 1.0 3.0 0.00 0.06 0.00 74 1016.7
20260503043014 39 294 0.0 4.0 0.00 0.06 0.00 72 1016.7